[Date Prev][Date Next][Thread Prev][Thread Next] - [Date Index][Thread Index][Author Index]

2 Line ISS Keps 6-11



ISS
1 25544U 98067A   03162.15927890  .00017970  00000-0  22867-3 0  1054
2 25544  51.6335  50.5303 0006599 238.4974 278.9657 15.59409335260069


----
Via the sarex mailing list at AMSAT.ORG courtesy of AMSAT-NA.
To unsubscribe, send "unsubscribe sarex" to Majordomo@amsat.org



AMSAT Top AMSAT Home